Tracking 27380 objects as of 5-Jun-2023
HD Live streaming from Space Station
objects crossing your sky now

COSMOS 1375 DEB

Track COSMOS 1375 DEB now!
10-day predictions


NORAD ID: 16202
Int'l Code: 1982-055D
Perigee: 847.1 km
Apogee: 973.9 km
Inclination: 65.8 °
Period: 103.1 minutes
Semi major axis: 7281 km
RCS: 0.038 m2 (small)
Launch date: June 6, 1982
Source: Commonwealth of Independent States (former USSR) (CIS)
Launch site: PLESETSK MISSILE AND SPACE COMPLEX (PKMTR)

Note: This is SATELLITE DEBRIS
Your satellite tracking list
Your tracking list is empty




NASA's NSSDC Master Catalog

Two Line Element Set (TLE):
1 16202U 82055D   23156.58958156  .00000427  00000-0  35383-3 0  9993
2 16202  65.8292 268.8284 0087066 202.3408 169.9379 13.97247897 83001
Source of the keplerian elements: AFSPC